AirNav   Air Wisconsin Up To $57,000 Bonus
 
 1070 users online  

T37 Goldthwaite Municipal Airport
Goldthwaite, Texas, USA

GOING TO GOLDTHWAITE?


FAA INFORMATION EFFECTIVE 08 OCTOBER 2020

Location

FAA Identifier: T37
Lat/Long: 31-25-44.6400N 098-36-30.0800W
31-25.744000N 098-36.501333W
31.4290667,-98.6083556
(estimated)
Elevation: 1457 ft. / 444 m (estimated)
From city: 2 miles SW of GOLDTHWAITE, TX
Time zone: UTC -5 (UTC -6 during Standard Time)
Zip code: 76844

Airport Operations

Airport use: Open to the public
Activation date: 08/2010
Control tower: no
ARTCC: FORT WORTH CENTER
FSS: FORT WORTH FLIGHT SERVICE STATION
NOTAMs facility: FTW (NOTAM-D service available)
Attendance: 0800-1700
Wind indicator: lighted
Segmented circle: yes

Airport Communications

CTAF: 122.9
WX AWOS-3 at 81R (13 nm SW): PHONE 325-372-6027

Nearby radio navigation aids

VOR radial/distance  VOR name  Freq  Var
AGJr296/28.0GOOCH SPRINGS VORTAC112.5005E
BWDr139/33.0BROWNWOOD VOR/DME108.6008E
LLOr006/39.1LLANO VORTAC108.2008E

Airport Services

Parking: hangars

Runway Information

Runway 1/19

Dimensions: 3200 x 60 ft. / 975 x 18 m
Surface: asphalt, in good condition
Weight bearing capacity: 
Single wheel: 12.5
RUNWAY 1  RUNWAY 19
Latitude: 31-25.485000N31-26.002833N
Longitude: 098-36.560833W098-36.442000W
Elevation: 1445.0 ft.1457.0 ft.
Traffic pattern: leftleft
Markings: basic, in fair conditionbasic, in fair condition
Obstructions: 3 ft. fence, 200 ft. from runway, 91 ft. left of centerline
3 FT FENCE 0-200 FT FM THLD 91 FT L.
50 ft. tree, 1133 ft. from runway, 32 ft. left of centerline, 18:1 slope to clear

Airport Ownership and Management from official FAA records

Ownership: Publicly-owned
Owner: CITY OF GOLDTHWAITE
PO BOX 450
GOLDTHWAITE, TX 76844-0450
Phone 325-648-3186
Manager: ROBERT LINDSEY
PO BOX 450
GOLDTHWAITE, TX 76844-0450
Phone 325-648-3186
CITY MANAGER

Airport Operational Statistics

Aircraft based on the field: 9
Single engine airplanes: 9
    
Aircraft operations: avg 52/week *
67% local general aviation
33% transient general aviation
* for 12-month period ending 13 September 2017

Additional Remarks

RWY 01 HAS 4 FT FENCE AND ISOLATED + 18 FT TREES 400-475 FT FM THLD ACROSS APCH.
DEER ON & INVOF ARPT.
FOR CD CTC FORT WORTH ARTCC AT 817-858-7584.

Instrument Procedures

There are no published instrument procedures at T37.

Some nearby airports with instrument procedures:

KMNZ - Hamilton Municipal Airport (27 nm NE)
KBWD - Brownwood Regional Airport (28 nm NW)
KLZZ - Lampasas Airport (29 nm SE)
KMKN - Comanche County-City Airport (29 nm N)
KAQO - Llano Municipal Airport (39 nm S)
 
Loc | Ops | Rwys | IFR | FBO | Links
Com | Nav | Svcs | Stats | Notes
Aerial photo
WARNING: Photo may not be current or correct
Aerial photo of T37 (Goldthwaite Municipal Airport)
Photo taken 20-Sep-2010

Do you have a better or more recent aerial photo of Goldthwaite Municipal Airport that you would like to share? If so, please send us your photo.

 
Sectional chart

 
Airport distance calculator
Flying to Goldthwaite Municipal Airport? Find the distance to fly.

From to T37

Sunrise and sunset
Times for 28-Oct-2020
 Local
(UTC-5)
 Zulu
(UTC)
Morning civil twilight07:2412:24
Sunrise07:4912:49
Sunset18:4723:47
Evening civil twilight19:1200:12

Current date and time
Zulu (UTC)  28-Oct-2020 23:28:42
Local (UTC-5)  28-Oct-2020 18:28:42
 
METAR
KMNZ 
27nm NE 
282315Z AUTO 30012G20KT 10SM CLR 11/02 A2990 RMK AO2 T01090024
KBWD 
28nm NW 
282315Z AUTO 30011KT 10SM CLR 10/01 A2991 RMK AO1
KLZZ 
29nm SE 
282315Z AUTO 30009G14KT 10SM CLR 11/02 A2987 RMK AO2 T01140017
KMKN 
29nm N 
282315Z AUTO 32009KT 10SM SCT040 09/03 A2990 RMK AO2 T00910029
KAQO 
39nm S 
282315Z AUTO 31011G18KT 10SM CLR 13/01 A2989 RMK AO2
KBBD 
40nm W 
282315Z AUTO 31013G20KT 10SM CLR 11/01 A2990 RMK AO2
KGOP 
42nm E 
282315Z AUTO 29008G13KT 10SM CLR 12/02 A2990 RMK AO2
KGRK 
45nm SE 
282258Z AUTO 31010KT 9SM CLR 12/02 A2987 RMK AO2 SLP118 T01200023
KBMQ 
46nm SE 
282253Z AUTO 31010G20KT 10SM CLR 13/02 A2990 RMK AO2 SLP123 T01280022 $
KCOM 
48nm NW 
282315Z AUTO 29009G20KT 10SM SCT041 10/01 A2991 RMK AO2 T00960006
TAF
KBBD 
40nm W 
281730Z 2818/2918 29014G21KT P6SM OVC015 FM282200 28015G24KT P6SM SCT250 FM290000 31010KT P6SM SCT250 FM291500 33015G25KT P6SM FEW250
KGRK 
45nm SE 
281600Z 2816/2922 30012G18KT 9999 SCT012 SCT025 BKN040 QNH2995INS BECMG 2819/2820 30012G18KT 9999 FEW020 SCT030 QNH3002INS BECMG 2822/2823 30009KT 9999 SKC QNH3006INS BECMG 2911/2912 31020G30KT 9999 OVC025 QNH3011INS TX11/2821Z TN05/2816Z
NOTAMs
Click for the latest NOTAMs
NOTAMs are issued by the DoD/FAA and will open in a separate window not controlled by AirNav.

 

 
 

Would you like to see your business listed on this page?

 If your business provides an interesting product or service to pilots, flight crews, aircraft, or users of the Goldthwaite Municipal Airport, you should consider listing it here.  To start the listing process, click on the button below
 
Add a business
 

Other Pages about Goldthwaite Municipal Airport

Update a link
 
Copyright © AirNav, LLC. All rights reserved. Privacy Policy  Contact